Tracking 30298 objects as of 27-Apr-2025
HD Live streaming from Space Station
objects crossing your sky now

SATCOM 3 DEB

Track SATCOM 3 DEB now!


NORAD ID: 31138
Int'l Code: 1979-101H
Perigee: 8,200.5 km
Apogee: 35,515.7 km
Inclination: 8.4 °
Period: 786.7 minutes
Semi major axis: 28229 km
RCS: 0.0839 m2 (small)
Launch date: December 7, 1979
Source: United States (US)
Launch site: AIR FORCE EASTERN TEST RANGE (AFETR)

Note: This is SATELLITE DEBRIS
Your satellite tracking list
Your tracking list is empty




NASA's NSSDC Master Catalog

Two Line Element Set (TLE):
1 31138U 79101H   25116.31874128 -.00000087  00000-0  00000-0 0  9999
2 31138   8.4136  91.4833 4838144  92.8813 340.1391  1.83044890123016
Source of the keplerian elements: AFSPC